DECAYED
Showing default

MORDOVIA-IOT, 61765 (Decayed)

Orbit data source: Space-Track

MORDOVIA-IOT, 61765 was a payload satellite owned by Saransk PT (CIS) in LEO that was launched on Mon, 04 Nov 2024 UTC via a SOYUZ-2-1B launch vehicle from the Vostochny Cosmodrome (VOSTO). Payload-class satellites include a variety of spacecraft equipped with specific instruments for various scientific and technological missions. These include communications satellites like Starlink; space stations such as the ISS; scientific satellites like the Hubble; Earth observation satellites from companies like Planet Labs, Umbra, and HawkEye 360; GPS; miniature CubeSats for education and research; and military/defense satellites.

Not visible in the next 10 days
Identifier
61765, 2024-199AG
Orbit
Decayed
Country
Flag of CISCIS
Related business
Manufacturer
Yugo-Zapad. GU
Mission
Decayed Amateur Technology
Bus & Motor
CUBESAT 3U, Unknown motor
Mass
5 kg wet, 5 kg dry
Launch date (UTC)
2024-11-04 (2 years ago)
Launch vehicle
SOYUZ-2-1B
Launch site
Vostochny Cosmodrome (VOSTO)
Object type
Payload
Rocket body
Debris
Shape & HBR
Box, 0.2 m
Radar Cross Section
0.035 m², Medium (>0.1 m² and < 1m²)

Expand to show TLE details & history
Last TLE update: 8 months ago

TLE from 8 months ago
0 MORDOVIA-IOT
1 61765U 24199AG  26036.19443600  .16377816  26719-5  36725-3 0  9999
2 61765  97.2739 278.4782 0007770 210.1809 149.9048 16.46150586114513
Epoch: 2026-02-05T04:39Z
TLE epoch observation values (Epoch: 2026-02-05T04:39:59.270Z)
Latitude
0.00004°
Longitude
73.13107°
Altitude
157.146 km
Speed
7.809 km/s
True Right ascension
18h 33m 54s
True Declination
0° 00' 00"
Sunlit
Object was in daylight at epoch
Visualization orbit readout
Latitude
Unknown
Longitude
Unknown
Altitude
Unknown
Speed
Unknown
Apparent Right ascension
Unknown
Apparent Declination
Unknown
Sunlit
N/A
Visualization observer readout
Local Sidereal Time
08:59:16
Azimuth
Unknown
Elevation
Unknown
Doppler factor
Unknown
Orbital elements
Apogee altitude
151.355 km
Perigee altitude
141.217 km
Semi-major axis
6,524.423 km
Eccentricity
0.00078
Inclination
97.2739°
RAAN
278.4782°
Arg. of periapsis
210.1809°
True anomaly
149.94941°
Mean anomaly
149.9048°
Eccentric anomaly
149.92711°
Mean motion
4.11841 °/min
Orbital period
87.41 mins
BSTAR
0.00036725
Loading maneuver chart data...
Computing Atmospheric mass density...
Loading historical data...
Loading historical data...
Loading historical data...
Loading historical data...
Loading historical data...
Loading historical data...
Loading historical data...

Documentation

Showing up to 5 results
|